• în Republica Moldova
  • Lista ţărilor
  • Pe 7 zile
  • Temperatura apei
  • Hartă satelitară
  • Meteo pe hartă
  • Widget-uri
  • user-avatar
    Intrare

    Meteo pe oră la Djelfa

    Astăzi, 20 Februarie, Marţi

    Timp Temperatura Precipitaţii Vânt Presiune Umiditate
    00:00 +6°C° 0 mm 2 m/s 660 mmHg 79%
    01:00 +6°C° 0 mm 2 m/s 660 mmHg 82%
    02:00 +5°C° 0 mm 2 m/s 660 mmHg 85%
    03:00 +5°C° 0 mm 2 m/s 660 mmHg 88%
    04:00 +4°C° 0 mm 2 m/s 660 mmHg 89%
    05:00 +4°C° 0 mm 2 m/s 660 mmHg 91%
    06:00 +3°C° 0 mm 2 m/s 660 mmHg 93%
    07:00 +3°C° 0 mm 3 m/s 660 mmHg 86%
    08:00 +4°C° 0 mm 4 m/s 660 mmHg 79%
    09:00 +5°C° 0 mm 5 m/s 661 mmHg 72%
    10:00 +6°C° 0 mm 5 m/s 661 mmHg 62%
    11:00 +7°C° 0 mm 6 m/s 661 mmHg 52%
    12:00 +9°C° 0 mm 6 m/s 661 mmHg 39%
    13:00 +9°C° 0 mm 6 m/s 660 mmHg 39%
    14:00 +9°C° 0 mm 7 m/s 660 mmHg 39%
    15:00 +10°C° 0 mm 7 m/s 660 mmHg 38%
    16:00 +9°C° 0 mm 7 m/s 659 mmHg 44%
    17:00 +8°C° 0 mm 7 m/s 659 mmHg 50%
    18:00 +7°C° 0 mm 6 m/s 659 mmHg 56%
    19:00 +7°C° 0 mm 6 m/s 659 mmHg 62%
    20:00 +5°C° 0 mm 6 m/s 659 mmHg 69%
    21:00 +4°C° 0 mm 6 m/s 659 mmHg 75%
    22:00 +4°C° 0 mm 6 m/s 659 mmHg 79%
    23:00 +3°C° 0 mm 6 m/s 659 mmHg 83%

    Mâine, 21 Februarie, Miercuri

    Timp Temperatura Precipitaţii Vânt Presiune Umiditate
    00:00 +3°C° 0 mm 6 m/s 659 mmHg 86%
    01:00 +2°C° 0 mm 5 m/s 658 mmHg 87%
    02:00 +2°C° 0 mm 5 m/s 657 mmHg 88%
    03:00 +2°C° 0 mm 5 m/s 657 mmHg 90%
    04:00 +2°C° 0 mm 5 m/s 657 mmHg 89%
    05:00 +2°C° 0 mm 5 m/s 656 mmHg 88%
    06:00 +3°C° 0 mm 4 m/s 656 mmHg 87%
    07:00 +3°C° 0,1 mm 5 m/s 656 mmHg 81%
    08:00 +5°C° 0,1 mm 5 m/s 656 mmHg 75%
    09:00 +5°C° 0,1 mm 5 m/s 656 mmHg 70%
    10:00 +7°C° 0 mm 5 m/s 656 mmHg 64%
    11:00 +8°C° 0 mm 6 m/s 656 mmHg 59%
    12:00 +9°C° 0 mm 6 m/s 655 mmHg 53%
    13:00 +9°C° 0,1 mm 7 m/s 655 mmHg 53%
    14:00 +9°C° 0,1 mm 7 m/s 654 mmHg 53%
    15:00 +9°C° 0,1 mm 7 m/s 653 mmHg 53%
    16:00 +8°C° 0,2 mm 7 m/s 653 mmHg 55%
    17:00 +8°C° 0,2 mm 7 m/s 653 mmHg 57%
    18:00 +7°C° 0,2 mm 6 m/s 653 mmHg 60%
    19:00 +5°C° 0,1 mm 6 m/s 653 mmHg 65%
    20:00 +4°C° 0,1 mm 6 m/s 653 mmHg 71%
    21:00 +5°C° 0,1 mm 5 m/s 653 mmHg 76%
    22:00 +3°C° 0,2 mm 6 m/s 653 mmHg 78%
    23:00 +3°C° 0,2 mm 6 m/s 653 mmHg 79%

    Poimâine, 22 Februarie, Joi

    Timp Temperatura Precipitaţii Vânt Presiune Umiditate
    00:00 +2°C° 0,2 mm 7 m/s 654 mmHg 81%
    01:00 +2°C° 0 mm 6 m/s 653 mmHg 79%
    02:00 +1°C° 0 mm 6 m/s 653 mmHg 77%
    03:00 0°C° 0 mm 5 m/s 653 mmHg 75%
    04:00 -1°C° 0 mm 6 m/s 653 mmHg 75%
    05:00 -2°C° 0 mm 6 m/s 653 mmHg 75%
    06:00 -2°C° 0 mm 6 m/s 653 mmHg 75%
    07:00 -2°C° 0 mm 6 m/s 653 mmHg 71%
    08:00 -1°C° 0 mm 7 m/s 654 mmHg 67%
    09:00 0°C° 0 mm 7 m/s 654 mmHg 63%
    10:00 +2°C° 0 mm 7 m/s 654 mmHg 58%
    11:00 +3°C° 0 mm 7 m/s 654 mmHg 53%
    12:00 +4°C° 0 mm 7 m/s 654 mmHg 47%
    13:00 +4°C° 0 mm 7 m/s 654 mmHg 46%
    14:00 +4°C° 0 mm 6 m/s 654 mmHg 45%
    15:00 +4°C° 0 mm 6 m/s 653 mmHg 44%
    16:00 +4°C° 0 mm 6 m/s 654 mmHg 47%
    17:00 +3°C° 0 mm 5 m/s 654 mmHg 50%
    18:00 +3°C° 0 mm 4 m/s 654 mmHg 53%
    19:00 +3°C° 0 mm 4 m/s 654 mmHg 56%
    20:00 +2°C° 0 mm 3 m/s 655 mmHg 60%
    21:00 +2°C° 0 mm 3 m/s 655 mmHg 64%
    22:00 +2°C° 0 mm 2 m/s 655 mmHg 66%
    23:00 +2°C° 0 mm 2 m/s 655 mmHg 69%

    23 Februarie, Vineri

    Timp Temperatura Precipitaţii Vânt Presiune Umiditate
    00:00 +2°C° 0 mm 1 m/s 655 mmHg 72%
    01:00 +1°C° 0 mm 2 m/s 654 mmHg 72%
    02:00 +1°C° 0 mm 2 m/s 654 mmHg 73%
    03:00 0°C° 0 mm 3 m/s 654 mmHg 74%
    04:00 0°C° 0 mm 3 m/s 654 mmHg 77%
    05:00 -1°C° 0 mm 3 m/s 654 mmHg 80%
    06:00 -1°C° 0 mm 3 m/s 654 mmHg 83%
    07:00 -1°C° 0 mm 4 m/s 655 mmHg 76%
    08:00 +1°C° 0 mm 5 m/s 655 mmHg 70%
    09:00 +2°C° 0 mm 6 m/s 656 mmHg 64%
    10:00 +3°C° 0 mm 6 m/s 656 mmHg 58%
    11:00 +4°C° 0 mm 6 m/s 656 mmHg 53%
    12:00 +5°C° 0 mm 7 m/s 656 mmHg 47%
    13:00 +6°C° 0 mm 7 m/s 656 mmHg 43%
    14:00 +8°C° 0 mm 6 m/s 655 mmHg 39%
    15:00 +8°C° 0 mm 6 m/s 655 mmHg 36%
    16:00 +7°C° 0 mm 5 m/s 655 mmHg 39%
    17:00 +8°C° 0 mm 3 m/s 655 mmHg 42%
    18:00 +7°C° 0 mm 2 m/s 655 mmHg 45%
    19:00 +6°C° 0 mm 2 m/s 655 mmHg 46%
    20:00 +6°C° 0 mm 2 m/s 655 mmHg 48%
    21:00 +6°C° 0 mm 1 m/s 656 mmHg 49%
    22:00 +5°C° 0 mm 2 m/s 656 mmHg 49%
    23:00 +5°C° 0 mm 2 m/s 656 mmHg 50%

    24 Februarie, Sâmbătă

    Timp Temperatura Precipitaţii Vânt Presiune Umiditate
    00:00 +4°C° 0 mm 3 m/s 656 mmHg 50%
    01:00 +4°C° 0 mm 3 m/s 655 mmHg 51%
    02:00 +4°C° 0 mm 3 m/s 655 mmHg 52%
    03:00 +3°C° 0 mm 3 m/s 654 mmHg 54%
    04:00 +3°C° 0 mm 3 m/s 655 mmHg 54%
    05:00 +3°C° 0 mm 3 m/s 655 mmHg 54%
    06:00 +3°C° 0 mm 4 m/s 655 mmHg 54%
    07:00 +5°C° 0 mm 4 m/s 655 mmHg 48%
    08:00 +7°C° 0 mm 5 m/s 656 mmHg 41%
    09:00 +9°C° 0 mm 6 m/s 656 mmHg 35%
    10:00 +9°C° 0,1 mm 7 m/s 656 mmHg 35%
    11:00 +10°C° 0,1 mm 7 m/s 656 mmHg 34%
    12:00 +11°C° 0,1 mm 7 m/s 656 mmHg 33%
    13:00 +11°C° 0,3 mm 7 m/s 656 mmHg 35%
    14:00 +11°C° 0,3 mm 7 m/s 655 mmHg 37%
    15:00 +11°C° 0,3 mm 6 m/s 655 mmHg 39%
    16:00 +10°C° 0,2 mm 5 m/s 655 mmHg 45%
    17:00 +10°C° 0,2 mm 4 m/s 655 mmHg 50%
    18:00 +9°C° 0,2 mm 2 m/s 655 mmHg 55%
    19:00 +8°C° 0 mm 3 m/s 656 mmHg 58%
    20:00 +6°C° 0 mm 4 m/s 656 mmHg 60%
    21:00 +6°C° 0 mm 5 m/s 657 mmHg 62%
    22:00 +5°C° 0 mm 5 m/s 657 mmHg 65%
    23:00 +3°C° 0 mm 5 m/s 657 mmHg 67%

    25 Februarie, Duminică

    Timp Temperatura Precipitaţii Vânt Presiune Umiditate
    00:00 +2°C° 0 mm 6 m/s 657 mmHg 69%
    01:00 +2°C° 0 mm 6 m/s 657 mmHg 72%
    02:00 +1°C° 0 mm 6 m/s 657 mmHg 75%
    03:00 +1°C° 0 mm 6 m/s 657 mmHg 78%
    04:00 0°C° 0 mm 5 m/s 658 mmHg 79%
    05:00 0°C° 0 mm 5 m/s 658 mmHg 81%
    06:00 0°C° 0 mm 5 m/s 658 mmHg 82%
    07:00 +1°C° 0 mm 5 m/s 659 mmHg 74%
    08:00 +2°C° 0 mm 5 m/s 659 mmHg 65%
    09:00 +3°C° 0 mm 6 m/s 660 mmHg 57%
    10:00 +5°C° 0 mm 6 m/s 660 mmHg 51%
    11:00 +7°C° 0 mm 6 m/s 660 mmHg 44%
    12:00 +8°C° 0 mm 6 m/s 660 mmHg 37%
    13:00 +9°C° 0 mm 6 m/s 660 mmHg 36%
    14:00 +10°C° 0 mm 6 m/s 660 mmHg 35%
    15:00 +10°C° 0 mm 6 m/s 660 mmHg 34%
    16:00 +9°C° 0 mm 5 m/s 660 mmHg 37%
    17:00 +10°C° 0 mm 4 m/s 660 mmHg 40%
    18:00 +9°C° 0 mm 3 m/s 660 mmHg 43%
    19:00 +8°C° 0 mm 3 m/s 660 mmHg 46%
    20:00 +7°C° 0 mm 2 m/s 660 mmHg 50%
    21:00 +6°C° 0 mm 2 m/s 660 mmHg 53%
    22:00 +7°C° 0 mm 1 m/s 660 mmHg 54%
    23:00 +6°C° 0 mm 1 m/s 660 mmHg 56%
    Arată mai mult